Location: Haulchin
(50.3172°N, 3.4360°E)
Time: 04:45:53
(UTC+00:00)

Okean 1-7 - Pass Details

Date: 23 May 2024
Orbit: 579 x 604 km, 82.5° (Epoch: 19 June)

Event Time Altitude Azimuth Distance (km) Brightness Sun altitude
Exits shadow 01:30:35 27° 213° (SSW) 1,167 3.9 -15.2°
Maximum altitude 01:32:46 58° 283° (WNW) 704 3.2 -15.0°
Drops below altitude 10° 01:37:03 10° 3° (N) 1,960 6.7 -14.7°
Sets 01:39:19 0° 8° (N) 2,871 7.9 -14.5°
